Regional Weather Roundup
Issued by NWS

Home | Current Version | Previous Version | Text Only | Print | Product List | Glossary Off
Versions: 1 2 3 4 5 6 7 8 9 10 11 12 13 14 15 16 17 18 19 20 21 22 23 24 25 26 27 28 29 30 31 32 33 34 35 36 37 38 39 40 41 42 43 44 45 46 47 48 49 50

000
ASUS43 KLOT 271012
RWRIL

ILLINOIS REGIONAL WEATHER ROUNDUP
NATIONAL WEATHER SERVICE CHICAGO/ROMEOVILLE IL
500 AM CDT FRI MAR 27 2015

NOTE: "FAIR" INDICATES FEW OR NO CLOUDS BELOW 12,000 FEET WITH NO
SIGNIFICANT WEATHER AND/OR OBSTRUCTIONS TO VISIBILITY.

* THESE STATIONS ARE NOT UNDER NWS QUALITY CONTROL. THEY ALSO MAY NOT
  REPORT WEATHER SUCH AS PRECIPITATION OR FOG.

ILZ001-002-007-009-015-016-024-271100-
NORTHWEST ILLINOIS

CITY           SKY/WX    TMP DP  RH WIND       PRES   REMARKS
MOLINE         CLOUDY    31  19  61 N6        30.12R WCI  25
STERLING*      CLEAR     27  16  63 N12G17    30.13R WCI  16
SAVANNA*       PTCLDY    26  12  56 N13       30.15R WCI  15
$$

ILZ003-004-008-010-011-017-018-271100-
NORTH CENTRAL ILLINOIS

CITY           SKY/WX    TMP DP  RH WIND       PRES   REMARKS
ROCKFORD       PTCLDY    24   7  48 N10       30.14R WCI  14
FREEPORT*      CLEAR     22  10  59 N9        30.15R WCI  12
ROCHELLE*      CLEAR     24  16  70 N10       30.12R WCI  14
DE KALB*       CLEAR     23  16  75 N12       30.10R WCI  12
PERU*          PTCLDY    29  19  67 N13G18    30.11R WCI  18
$$

ILZ005-006-012>014-019>023-271100-
NORTHEAST ILLINOIS

CITY           SKY/WX    TMP DP  RH WIND       PRES   REMARKS
CHICAGO-OHARE  LGT SNOW  27  22  81 NE13      30.08R WCI  16
CHICAGO-MIDWAY LGT SNOW  29  24  82 N13       30.09R FOG     WCI  19
AURORA         CLOUDY    28  19  69 N14       30.09R WCI  17
LANSING*       LGT SNOW  28  23  82 NE10      30.07S WCI  19
JOLIET*        MOCLDY    31  21  68 N10       30.09R WCI  22
WAUKEGAN       FLURRIES  23  16  74 N15G22    30.09R WCI  10
DUPAGE AIRPORT CLOUDY    27  19  72 N12       30.08R WCI  17
KANKAKEE*      MOCLDY    30  21  69 N10       30.07R WCI  21
WHEELING       LGT SNOW  26  22  84 N8        30.11R FOG     WCI  18
MORRIS*        PTCLDY    28  21  74 N8        30.08R WCI  20
ROMEOVILLE*    FLURRIES  28  22  78 NE14      30.08R WCI  17
NORTHERLY ISL    N/A     27  23  85 N17         N/A  WCI  14
$$

LMZ740>746-271100-
SOUTHERN LAKE MICHIGAN

STATION/POSITION SKY/WX   TEMP    WIND        PRES    VSBY  WAVE
                          AIR SEA DIR/SP/G                  HT/PER
                          (F)     (DEG/KT/KT) (MB)    (MI)  (FT/S)
HARRISON CRIB              28      10/ 20/ 24   N/A
BURNHAM HARBOR             27      10/ 14/ 19   N/A
CALUMET HARBOR                     10/ 13/ 18 1017.1R
BURNS HARBOR               29      30/ 19/ 23 1018.3R
MICHIGAN CITY              27     360/ 21/ 24   N/A
$$

ILZ025>027-034>036-040-047-049-050-058-095>099-271100-
WEST-CENTRAL ILLINOIS

CITY           SKY/WX    TMP DP  RH WIND       PRES   REMARKS
QUINCY         CLEAR     28  22  78 N8        30.11S WCI  20
GALESBURG*     CLEAR     26  23  88 NW6       30.12R WCI  19
MACOMB*        PTCLDY    28  24  86 NW10      30.13S WCI  18
JACKSONVILLE*  PTCLDY    32  24  73 N9        30.10S WCI  24
PITTSFIELD*    PTCLDY    32  24  72 N7        30.12R WCI  26
$$

ILZ028>032-037-038-041>044-048-051>054-059>061-271100-
CENTRAL ILLINOIS

CITY           SKY/WX    TMP DP  RH WIND       PRES   REMARKS
PONTIAC        CLOUDY    31  24  75 N7        30.09R WCI  24
BLOOMINGTON    PTCLDY    29  21  71 N10       30.08R WCI  20
DECATUR        CLOUDY    32  25  75 N9        30.07R WCI  24
PEORIA         CLEAR     29  22  75 N5        30.10R WCI  24
LACON*         CLEAR     28  21  75 N5        30.10R WCI  23
LINCOLN*       MOCLDY    31  25  77 N7        30.10R WCI  25
SPRINGFIELD    MOCLDY    31  23  72 N9        30.09R WCI  23
TAYLORVILLE    CLOUDY    32  27  80 N8        30.08R WCI  25
$$

ILZ033-039-045-046-055>057-062-063-271100-
EAST-CENTRAL ILLINOIS

CITY           SKY/WX    TMP DP  RH WIND       PRES   REMARKS
CHAMPAIGN      CLOUDY    32  25  75 N9        30.05R WCI  24
DANVILLE*      CLOUDY    30  28  92 N3        30.02S
RANTOUL*       CLOUDY    32  28  83 N6        30.06R WCI  26
MATTOON        CLOUDY    32  27  81 N8        30.04R WCI  25
PARIS*         CLOUDY    32  28  85 CALM      30.06R
$$

ILZ079-100>102-271100-
SOUTHWEST ILLINOIS

CITY           SKY/WX    TMP DP  RH WIND       PRES   REMARKS
ALTON          CLOUDY    35  26  70 N5        30.10R WCI  31
BELLEVILLE     FLURRIES  37  29  75 N12       30.08R WCI  29
CAHOKIA*       CLOUDY    37  26  64 N14       30.10R WCI  28
SPARTA*        CLOUDY    36  29  76 N10       30.08R WCI  28
$$

ILZ064>066-069>071-074>076-080>082-084>086-088>090-092>094-271100-
SOUTH-CENTRAL ILLINOIS

CITY           SKY/WX    TMP DP  RH WIND       PRES   REMARKS
CARBONDALE     MOCLDY    36  30  79 NW9       30.04R WCI  29
CAIRO*         PTCLDY    37  32  81 NW3       30.02F
EFFINGHAM*     CLOUDY    34  25  68 N7        30.06F WCI  28
MARION         MOCLDY    37  32  81 NW3       30.03S
MT. VERNON     CLOUDY    36  27  69 N5        30.05R WCI  32
CENTRALIA*     CLOUDY    36  29  76 N7        30.05S WCI  30
SALEM*         CLOUDY    37  29  73 N8        30.06S WCI  31
METROPOLIS*    CLOUDY    35  35 100 CALM      30.01S
$$

ILZ067-068-072-073-078-083-087-091-271100-
SOUTHEAST ILLINOIS

CITY           SKY/WX    TMP DP  RH WIND       PRES   REMARKS
LAWRENCEVILLE  MOCLDY    34  29  82 N10       30.04R WCI  26
FLORA*         MOCLDY    35  30  81 N7        30.06R WCI  29
FAIRFIELD*     MOCLDY    36  30  80 N8        30.03S WCI  29
HARRISBURG*    MOCLDY    37  31  79 N7        30.03S WCI  31
ROBINSON*      CLOUDY    33  28  82 N7        30.05S WCI  27
CARMI*         FAIR      37  32  84 N8        30.02S WCI  30
$$

ABBREVIATIONS USED IN REMARKS
   TC - TEMPERATURE IN CELSIUS
  WCI - WIND CHILL INDEX
   HX - HEAT INDEX
  VSB - VISIBILITY
$$




USA.gov is the U.S. government's official web portal to all federal, state and local government web resources and services.